Weather Roundup
Issued by NWS Chicago, IL

Home | Current Version | Previous Version | Graphics & Text | Print | Product List | Glossary On
Versions: 1 2 3 4 5 6 7 8 9 10 11 12 13 14 15 16 17 18 19 20 21 22 23 24 25 26 27 28 29 30 31 32 33 34 35 36 37 38 39 40 41 42 43 44 45 46 47 48 49 50
000
NZUS59 KLOT 012312
HRRLOT

CHICAGO AREA WEATHER ROUNDUP
NATIONAL WEATHER SERVICE CHICAGO/ROMEOVILLE IL
600 PM CDT WED JUL 01 2015

NOTE: "FAIR" INDICATES FEW OR NO CLOUDS BELOW 12,000 FEET WITH NO
SIGNIFICANT WEATHER AND/OR OBSTRUCTIONS TO VISIBILITY.

* THESE STATIONS ARE NOT UNDER NWS QUALITY CONTROL. THEY ALSO MAY NOT
  REPORT WEATHER SUCH AS PRECIPITATION OR FOG.

ILZ005-006-012>014-019>023-020000-
NORTHEAST ILLINOIS

CITY           SKY/WX    TMP DP  RH WIND       PRES   REMARKS
OHARE          PTSUNNY   61  50  67 NE9       29.98R
MIDWAY         PTSUNNY   63  52  67 E10       29.97R
AURORA         MOSUNNY   69  55  60 NE10      29.95R
LANSING*       MOSUNNY   61  49  65 NE8       29.97R
JOLIET*        MOSUNNY   68  58  68 E10       29.95R
WAUKEGAN       PTSUNNY   54  50  86 NE7       29.99S
DUPAGE AIRPORT MOSUNNY   64  53  67 NE12      29.96R
WHEELING       PTSUNNY   59  49  69 NE8       29.99S
KANKAKEE*      PTSUNNY   68  59  71 NE12      29.94S
MORRIS*        MOSUNNY   70  58  66 E9        29.93R
LEWIS AIRPORT* MOSUNNY   65  53  65 E13       29.96R
NORTHERLY IS     N/A     59  51  75 NE6         N/A
$$

WIZ051-052-058>065-066-070>072-020000-
SOUTHEAST WISCONSIN

CITY           SKY/WX    TMP DP  RH WIND       PRES   REMARKS
MILWAUKEE      CLOUDY    55  50  83 NE7       30.00R
KENOSHA*       PTSUNNY   56  50  80 E7        30.00R
RACINE*        PTSUNNY   55  49  80 NE9       30.01S
BURLINGTON     CLOUDY    59  51  74 E9        29.98S
WAUKESHA       MOSUNNY   57  52  82 E8        29.99S
WEST BEND      PTSUNNY   59  52  77 E6        29.99S
$$

INZ001>003-010>013-019-020-020000-
NORTHWEST INDIANA

CITY           SKY/WX    TMP DP  RH WIND       PRES   REMARKS
GARY*          PTSUNNY   63  54  72 NE9       29.98R
MICHIGAN CITY* NOT AVBL
RENSSELAER*    NOT AVBL
VALPARAISO     MOSUNNY   63  50  62 N8        29.97R
$$

LMZ740>746-020000-
SOUTHERN LAKE MICHIGAN

STATION/POSITION TIME  SKY/WX   TEMP WIND        PRES    VSBY
                                AIR  DIR/SP/G
                 (UTC)          (F)  (DEG/KT/KT) (MB)    (MI)
HARRISON CRIB    2200            56   50/  8/ 10   N/A
BURNHAM HARBOR   2300            58   30/  8/ 10   N/A
CALUMET HARBOR   2200            58   40/  7/ 10   N/A
BURNS HARBOR     2200            60   50/ 10/ 14 1015.2F
MICHIGAN CITY    2200            58   20/ 11/ 13   N/A
$$

ABBREVIATIONS USED IN REMARKS
   TC - TEMPERATURE IN CELSIUS
  WCI - WIND CHILL INDEX
   HX - HEAT INDEX
  VSB - VISIBILITY
$$


USA.gov is the U.S. government's official web portal to all federal, state and local government web resources and services.